| time (UTC) | temp C | wind direction | speed KPH | gust KPH | rain 1hr cm | rain 24hr cm | rain mn cm | humidity % | barometer mb |
| 20260831035418 | 21 | 109 | 3.2 | 9.7 | 0.00 | 0.00 | 0.00 | 61 | 1027.9 |
| 20260831034418 | 21 | 172 | 3.2 | 9.7 | 0.00 | 0.00 | 0.00 | 62 | 1027.9 |
| 20260831033416 | 21 | 177 | 3.2 | 9.7 | 0.00 | 0.00 | 0.00 | 61 | 1028.0 |
| 20260831032416 | 20 | 141 | 3.2 | 8.0 | 0.00 | 0.00 | 0.00 | 65 | 1028.2 |
| 20260831031416 | 20 | 146 | 4.8 | 11.3 | 0.00 | 0.00 | 0.00 | 66 | 1028.3 |
| 20260831030416 | 20 | 245 | 4.8 | 14.5 | 0.00 | 0.00 | 0.00 | 67 | 1028.4 |
| 20260831025416 | 20 | 185 | 3.2 | 11.3 | 0.00 | 0.00 | 0.00 | 65 | 1028.6 |
| 20260831024418 | 21 | 109 | 3.2 | 9.7 | 0.00 | 0.00 | 0.00 | 64 | 1028.8 |
| 20260831023414 | 21 | 135 | 3.2 | 8.0 | 0.00 | 0.00 | 0.00 | 63 | 1028.9 |
| 20260831022411 | 21 | 180 | 3.2 | 8.0 | 0.00 | 0.00 | 0.00 | 65 | 1029.0 |
| 20260831021412 | 20 | 207 | 3.2 | 12.9 | 0.00 | 0.00 | 0.00 | 66 | 1029.1 |
| 20260831020412 | 20 | 135 | 4.8 | 11.3 | 0.00 | 0.00 | 0.00 | 66 | 1029.3 |
| 20260831015852 | 20 | 169 | 4.8 | 12.9 | 0.00 | 0.00 | 0.00 | 66 | 1029.3 |
| 20260831014852 | 21 | 209 | 3.2 | 8.0 | 0.00 | 0.00 | 0.00 | 64 | 1029.5 |
| 20260831013409 | 21 | 137 | 3.2 | 12.9 | 0.00 | 0.00 | 0.00 | 64 | 1029.6 |
| 20260831012406 | 20 | 106 | 3.2 | 14.5 | 0.00 | 0.00 | 0.00 | 65 | 1029.6 |
| 20260831011407 | 21 | 165 | 3.2 | 6.4 | 0.00 | 0.00 | 0.00 | 65 | 1029.7 |
| 20260831010407 | 20 | 13 | 3.2 | 6.4 | 0.00 | 0.00 | 0.00 | 65 | 1029.8 |
| 20260831005408 | 20 | 134 | 3.2 | 11.3 | 0.00 | 0.00 | 0.00 | 67 | 1029.9 |
| 20260831004406 | 20 | 276 | 3.2 | 6.4 | 0.00 | 0.00 | 0.00 | 67 | 1029.9 |
| 20260831003404 | 19 | 20 | 3.2 | 8.0 | 0.00 | 0.00 | 0.00 | 70 | 1030.0 |
| 20260831002404 | 19 | 328 | 3.2 | 6.4 | 0.00 | 0.00 | 0.00 | 71 | 1030.1 |
| 20260831001405 | 19 | 189 | 3.2 | 8.0 | 0.00 | 0.00 | 0.00 | 70 | 1030.1 |
| 20260831000405 | 18 | 45 | 3.2 | 14.5 | 0.00 | 0.00 | 0.00 | 73 | 1030.1 |
| 20260830235405 | 18 | 55 | 4.8 | 9.7 | 0.00 | 0.00 | 0.00 | 74 | 1030.1 |
| 20260830234401 | 17 | 129 | 3.2 | 14.5 | 0.00 | 0.00 | 0.00 | 77 | 1030.1 |
| 20260830233402 | 17 | 1 | 3.2 | 11.3 | 0.00 | 0.00 | 0.00 | 80 | 1030.2 |
| 20260830232402 | 16 | 328 | 3.2 | 6.4 | 0.00 | 0.00 | 0.00 | 85 | 1030.2 |
| 20260830231403 | 15 | 98 | 3.2 | 25.7 | 0.00 | 0.00 | 0.00 | 91 | 1030.2 |
| 20260830230403 | 15 | 127 | 3.2 | 9.7 | 0.00 | 0.00 | 0.00 | 97 | 1030.2 |
| 20260830225403 | 14 | 133 | 3.2 | 8.0 | 0.00 | 0.00 | 0.00 | 100 | 1030.2 |
| 20260830224400 | 13 | 229 | 3.2 | 6.4 | 0.00 | 0.00 | 0.00 | 100 | 1030.1 |
| 20260830223835 | 13 | 132 | 3.2 | 11.3 | 0.00 | 0.00 | 0.00 | 100 | 1030.1 |
| 20260830222836 | 13 | 131 | 3.2 | 4.8 | 0.00 | 0.00 | 0.00 | 100 | 1030.1 |
| 20260830221400 | 13 | 89 | 3.2 | 6.4 | 0.00 | 0.00 | 0.00 | 100 | 1030.0 |
| 20260830220400 | 12 | 134 | 3.2 | 9.7 | 0.00 | 0.00 | 0.00 | 100 | 1030.0 |
| 20260830215401 | 12 | 123 | 3.2 | 9.7 | 0.00 | 0.00 | 0.00 | 100 | 1030.0 |
| 20260830214358 | 11 | 90 | 6.4 | 11.3 | 0.00 | 0.00 | 0.00 | 100 | 1029.9 |
| 20260830213355 | 11 | 56 | 4.8 | 9.7 | 0.00 | 0.00 | 0.00 | 100 | 1029.8 |
| 20260830212356 | 10 | 38 | 3.2 | 9.7 | 0.00 | 0.00 | 0.00 | 100 | 1029.6 |
| 20260830211355 | 9 | 43 | 1.6 | 4.8 | 0.00 | 0.00 | 0.00 | 100 | 1029.5 |
| 20260830210356 | 8 | 37 | 1.6 | 3.2 | 0.00 | 0.00 | 0.00 | 100 | 1029.4 |
| 20260830205352 | 8 | 23 | 1.6 | 3.2 | 0.00 | 0.00 | 0.00 | 100 | 1029.3 |
| 20260830204832 | 7 | 72 | 0.0 | 1.6 | 0.00 | 0.00 | 0.00 | 99 | 1029.1 |
| 20260830203350 | 7 | 37 | 0.0 | 1.6 | 0.00 | 0.00 | 0.00 | 99 | 1029.0 |
| 20260830202350 | 7 | 123 | 0.0 | 1.6 | 0.00 | 0.00 | 0.00 | 99 | 1028.9 |
| 20260830201350 | 7 | 324 | 0.0 | 3.2 | 0.00 | 0.00 | 0.00 | 99 | 1028.8 |
| 20260830195350 | 7 | 0 | 0.0 | 1.6 | 0.00 | 0.00 | 0.00 | 99 | 1028.6 |
| 20260830194348 | 7 | 346 | 0.0 | 1.6 | 0.00 | 0.00 | 0.00 | 99 | 1028.5 |
| 20260830193348 | 7 | 334 | 0.0 | 1.6 | 0.00 | 0.00 | 0.00 | 99 | 1028.5 |
| 20260830192348 | 7 | 279 | 0.0 | 3.2 | 0.00 | 0.00 | 0.00 | 99 | 1028.4 |
| 20260830191348 | 7 | 10 | 0.0 | 1.6 | 0.00 | 0.00 | 0.00 | 99 | 1028.4 |
| 20260830190348 | 6 | 0 | 0.0 | 3.2 | 0.00 | 0.00 | 0.00 | 99 | 1028.4 |
| 20260830185346 | 6 | 311 | 0.0 | 1.6 | 0.00 | 0.00 | 0.00 | 99 | 1028.5 |
| 20260830184346 | 6 | 322 | 0.0 | 1.6 | 0.00 | 0.00 | 0.00 | 99 | 1028.5 |
| 20260830183347 | 6 | 0 | 0.0 | 1.6 | 0.00 | 0.00 | 0.00 | 99 | 1028.4 |
| 20260830182815 | 6 | 43 | 0.0 | 1.6 | 0.00 | 0.00 | 0.00 | 99 | 1028.4 |
| 20260830181343 | 6 | 0 | 0.0 | 1.6 | 0.00 | 0.00 | 0.00 | 99 | 1028.4 |
| 20260830180818 | 6 | 0 | 0.0 | 1.6 | 0.00 | 0.00 | 0.00 | 99 | 1028.4 |
| 20260830175341 | 6 | 77 | 0.0 | 3.2 | 0.00 | 0.00 | 0.00 | 99 | 1028.5 |
| 20260830174337 | 6 | 69 | 0.0 | 1.6 | 0.00 | 0.00 | 0.00 | 99 | 1028.4 |
| 20260830173340 | 6 | 33 | 0.0 | 1.6 | 0.00 | 0.00 | 0.00 | 99 | 1028.4 |
| 20260830172337 | 6 | 0 | 0.0 | 1.6 | 0.00 | 0.00 | 0.00 | 99 | 1028.4 |
| 20260830171338 | 6 | 11 | 0.0 | 1.6 | 0.00 | 0.00 | 0.00 | 99 | 1028.3 |
| 20260830170337 | 6 | 227 | 0.0 | 1.6 | 0.00 | 0.00 | 0.00 | 98 | 1028.3 |
| 20260830165337 | 7 | 0 | 0.0 | 1.6 | 0.00 | 0.00 | 0.00 | 99 | 1028.3 |
| 20260830164337 | 7 | 0 | 0.0 | 3.2 | 0.00 | 0.00 | 0.00 | 99 | 1028.2 |
| 20260830163822 | 7 | 74 | 0.0 | 1.6 | 0.00 | 0.00 | 0.00 | 99 | 1028.3 |
| 20260830162337 | 7 | 0 | 0.0 | 1.6 | 0.00 | 0.00 | 0.00 | 99 | 1028.5 |
| 20260830161336 | 7 | 0 | 0.0 | 1.6 | 0.00 | 0.00 | 0.00 | 98 | 1028.4 |
| 20260830160336 | 7 | 33 | 0.0 | 1.6 | 0.00 | 0.00 | 0.00 | 99 | 1028.6 |
| 20260830155336 | 6 | 0 | 0.0 | 1.6 | 0.00 | 0.00 | 0.00 | 98 | 1028.6 |
| 20260830154813 | 6 | 0 | 0.0 | 1.6 | 0.00 | 0.00 | 0.00 | 98 | 1028.6 |
| 20260830153338 | 6 | 0 | 0.0 | 1.6 | 0.00 | 0.00 | 0.00 | 98 | 1028.6 |
| 20260830152334 | 6 | 0 | 0.0 | 0.0 | 0.00 | 0.00 | 0.00 | 98 | 1028.7 |
| 20260830151334 | 6 | 106 | 0.0 | 1.6 | 0.00 | 0.00 | 0.00 | 98 | 1028.7 |
| 20260830150334 | 6 | 0 | 0.0 | 1.6 | 0.00 | 0.00 | 0.00 | 98 | 1028.8 |
| 20260830145335 | 7 | 0 | 0.0 | 1.6 | 0.00 | 0.00 | 0.00 | 98 | 1028.7 |
| 20260830144332 | 7 | 88 | 0.0 | 1.6 | 0.00 | 0.00 | 0.00 | 98 | 1028.8 |
| 20260830143809 | 8 | 0 | 0.0 | 1.6 | 0.00 | 0.00 | 0.00 | 98 | 1028.8 |
| 20260830142329 | 8 | 59 | 0.0 | 1.6 | 0.00 | 0.00 | 0.00 | 98 | 1028.7 |
| 20260830140329 | 7 | 64 | 0.0 | 1.6 | 0.00 | 0.00 | 0.00 | 98 | 1028.7 |
| 20260830135329 | 7 | 0 | 0.0 | 1.6 | 0.00 | 0.00 | 0.00 | 97 | 1028.8 |
| 20260830134330 | 8 | 0 | 0.0 | 1.6 | 0.00 | 0.00 | 0.00 | 98 | 1028.8 |
| 20260830133329 | 8 | 0 | 0.0 | 1.6 | 0.00 | 0.00 | 0.00 | 97 | 1028.7 |
| 20260830132327 | 8 | 0 | 0.0 | 1.6 | 0.00 | 0.00 | 0.00 | 97 | 1028.8 |
| 20260830131328 | 7 | 0 | 0.0 | 0.0 | 0.00 | 0.00 | 0.00 | 97 | 1028.9 |
| 20260830130326 | 7 | 0 | 0.0 | 1.6 | 0.00 | 0.00 | 0.00 | 98 | 1028.9 |
| 20260830125328 | 7 | 0 | 0.0 | 1.6 | 0.00 | 0.00 | 0.00 | 96 | 1028.9 |
| 20260830124803 | 7 | 0 | 0.0 | 1.6 | 0.00 | 0.00 | 0.00 | 96 | 1029.0 |
| 20260830123328 | 7 | 0 | 0.0 | 1.6 | 0.00 | 0.00 | 0.00 | 96 | 1028.9 |
| 20260830122325 | 7 | 0 | 0.0 | 0.0 | 0.00 | 0.00 | 0.00 | 96 | 1028.9 |
| 20260830121325 | 7 | 0 | 0.0 | 1.6 | 0.00 | 0.00 | 0.00 | 96 | 1028.7 |
| 20260830120325 | 7 | 0 | 0.0 | 0.0 | 0.00 | 0.00 | 0.00 | 96 | 1028.7 |
| 20260830115325 | 8 | 0 | 0.0 | 1.6 | 0.00 | 0.00 | 0.00 | 96 | 1028.7 |
| 20260830114326 | 8 | 0 | 0.0 | 1.6 | 0.00 | 0.00 | 0.00 | 96 | 1028.7 |
| 20260830113326 | 8 | 0 | 0.0 | 1.6 | 0.00 | 0.00 | 0.00 | 96 | 1028.7 |
| 20260830112757 | 8 | 0 | 0.0 | 1.6 | 0.00 | 0.00 | 0.00 | 96 | 1028.8 |
| 20260830111758 | 9 | 0 | 0.0 | 0.0 | 0.00 | 0.00 | 0.00 | 96 | 1028.7 |
| 20260830110323 | 9 | 0 | 0.0 | 1.6 | 0.00 | 0.00 | 0.00 | 96 | 1028.8 |
| 20260830105323 | 9 | 0 | 0.0 | 0.0 | 0.00 | 0.00 | 0.00 | 96 | 1028.8 |
| 20260830104324 | 9 | 0 | 0.0 | 0.0 | 0.00 | 0.00 | 0.00 | 96 | 1028.8 |
| 20260830103320 | 8 | 0 | 0.0 | 0.0 | 0.00 | 0.00 | 0.00 | 95 | 1028.8 |
| 20260830102321 | 9 | 0 | 0.0 | 1.6 | 0.00 | 0.00 | 0.00 | 95 | 1028.7 |
| 20260830101321 | 9 | 0 | 0.0 | 1.6 | 0.00 | 0.00 | 0.00 | 96 | 1028.7 |
| 20260830100322 | 8 | 0 | 0.0 | 1.6 | 0.00 | 0.00 | 0.00 | 94 | 1028.7 |
| 20260830095759 | 8 | 0 | 0.0 | 1.6 | 0.00 | 0.00 | 0.00 | 94 | 1028.6 |
| 20260830094321 | 9 | 0 | 0.0 | 1.6 | 0.00 | 0.00 | 0.00 | 93 | 1028.5 |
| 20260830093319 | 10 | 0 | 0.0 | 0.0 | 0.00 | 0.00 | 0.00 | 93 | 1028.4 |
| 20260830091319 | 10 | 0 | 0.0 | 1.6 | 0.00 | 0.00 | 0.00 | 93 | 1028.3 |
| 20260830090318 | 11 | 0 | 0.0 | 1.6 | 0.00 | 0.00 | 0.00 | 93 | 1028.2 |
| 20260830084319 | 11 | 137 | 0.0 | 1.6 | 0.00 | 0.00 | 0.00 | 92 | 1028.1 |
| 20260830083317 | 11 | 0 | 0.0 | 1.6 | 0.00 | 0.00 | 0.00 | 91 | 1028.1 |
| 20260830082317 | 11 | 0 | 0.0 | 1.6 | 0.00 | 0.00 | 0.00 | 89 | 1028.0 |
| 20260830081317 | 12 | 0 | 0.0 | 1.6 | 0.00 | 0.00 | 0.00 | 87 | 1028.0 |
| 20260830080317 | 12 | 0 | 0.0 | 1.6 | 0.00 | 0.00 | 0.00 | 85 | 1027.9 |
| 20260830075317 | 13 | 0 | 0.0 | 1.6 | 0.00 | 0.00 | 0.00 | 84 | 1027.8 |
| 20260830074318 | 13 | 0 | 0.0 | 1.6 | 0.00 | 0.00 | 0.00 | 82 | 1027.7 |
| 20260830073315 | 14 | 0 | 0.0 | 1.6 | 0.00 | 0.00 | 0.00 | 81 | 1027.6 |
| 20260830072316 | 15 | 106 | 0.0 | 3.2 | 0.00 | 0.00 | 0.00 | 80 | 1027.5 |
| 20260830071315 | 16 | 252 | 0.0 | 3.2 | 0.00 | 0.00 | 0.00 | 78 | 1027.4 |
| 20260830070316 | 16 | 228 | 0.0 | 3.2 | 0.00 | 0.00 | 0.00 | 76 | 1027.5 |
| 20260830065316 | 16 | 194 | 1.6 | 6.4 | 0.00 | 0.00 | 0.00 | 75 | 1027.5 |
| 20260830064312 | 17 | 213 | 3.2 | 6.4 | 0.00 | 0.00 | 0.00 | 73 | 1027.5 |
| 20260830063314 | 17 | 261 | 3.2 | 6.4 | 0.00 | 0.00 | 0.00 | 72 | 1027.4 |
| 20260830062313 | 17 | 167 | 1.6 | 8.0 | 0.00 | 0.00 | 0.00 | 70 | 1027.4 |
| 20260830061800 | 18 | 188 | 1.6 | 6.4 | 0.00 | 0.00 | 0.00 | 69 | 1027.3 |
| 20260830060313 | 18 | 202 | 1.6 | 6.4 | 0.00 | 0.00 | 0.00 | 67 | 1027.3 |
| 20260830055312 | 20 | 92 | 1.6 | 4.8 | 0.00 | 0.00 | 0.00 | 64 | 1027.3 |
| 20260830054311 | 20 | 246 | 1.6 | 4.8 | 0.00 | 0.00 | 0.00 | 62 | 1027.4 |
| 20260830053311 | 20 | 184 | 1.6 | 6.4 | 0.00 | 0.00 | 0.00 | 62 | 1027.4 |
| 20260830052312 | 19 | 167 | 3.2 | 8.0 | 0.00 | 0.00 | 0.00 | 62 | 1027.4 |
| 20260830051312 | 19 | 192 | 3.2 | 9.7 | 0.00 | 0.00 | 0.00 | 62 | 1027.5 |
| 20260830050309 | 19 | 217 | 3.2 | 8.0 | 0.00 | 0.00 | 0.00 | 63 | 1027.7 |
| 20260830045309 | 19 | 79 | 3.2 | 6.4 | 0.00 | 0.00 | 0.00 | 62 | 1027.7 |
| 20260830044310 | 19 | 195 | 3.2 | 9.7 | 0.00 | 0.00 | 0.00 | 63 | 1027.7 |
| 20260830043310 | 19 | 183 | 3.2 | 11.3 | 0.00 | 0.00 | 0.00 | 66 | 1027.6 |
| 20260830042312 | 20 | 205 | 3.2 | 14.5 | 0.00 | 0.00 | 0.00 | 66 | 1027.7 |
| 20260830041307 | 20 | 80 | 3.2 | 9.7 | 0.00 | 0.00 | 0.00 | 65 | 1027.7 |